Home   Weather   Saskatoon   Past weeks

Flag for Canada Past Weather in Saskatoon, Saskatchewan, Canada — Yesterday and Last 2 Weeks

Now
36 °F

Partly sunny.


Feels Like: 29 °F
Forecast: N/A
Wind: 9 mph from Southwest

Location: Saskatoon Weather Station

Current Time: Jan 17, 2017 at 3:49:10 pm

Latest Report: Jan 17, 2017 at 3:00 pm


Visibility: 15 mi

Pressure: 29.53 "Hg

Humidity: 81%

Dew Point: 30 °F

Location of SaskatoonLocation

Past Weather in Saskatoon — Graph

°F

Saskatoon Temperature Yesterday

Maximum temperature yesterday: 30 °F (at 3:00 pm)
Minimum temperature yesterday: 10 °F (at 5:00 am)
Average temperature yesterday: 20 °F

High & Low Weather Summary for the Past Weeks

 TemperatureHumidityPressure
High36 °F (Jan 17, 2:00 pm)93% (Jan 11, 7:34 pm)30.71 "Hg (Jan 11, 7:34 pm)
Low-31 °F (Jan 3, 1:00 am)52% (Jan 12, 4:00 pm)29.49 "Hg (Jan 11, 7:20 pm)
Average-3 °F76%30.22 "Hg
* Reported Jan 2 2:00 pm — Jan 17 2:00 pm, Saskatoon, Weather by CustomWeather, © 2017

Note: Actual official high and low records may vary slightly from our data, if they occured in-between our weather recording intervals... More about our weather records

Advertising

Saskatoon Weather History for the Previous 24 Hours

Scroll right to see more
 ConditionsComfort  
Time TempWeatherWind HumidityBarometerVisibility
2:00 pm
Tue, Jan 17
36 °FPartly sunny.9 mph81%29.52 "Hg15 mi
1:00 pm34 °FPartly sunny.10 mph81%29.53 "Hg15 mi
12:00 pm32 °FPartly sunny.12 mph80%29.53 "Hg15 mi
11:00 am34 °FOvercast.12 mph75%29.54 "Hg15 mi
10:00 am30 °FPartly sunny.13 mph80%29.52 "Hg15 mi
9:00 am30 °FPassing clouds.12 mph80%29.52 "Hg15 mi
8:00 am30 °FPassing clouds.12 mph75%29.51 "Hg15 mi
7:00 am23 °FPassing clouds.5 mph80%29.54 "Hg15 mi
6:00 am25 °FPartly cloudy.9 mph80%29.56 "Hg15 mi
5:00 am25 °FPassing clouds.14 mph74%29.58 "Hg15 mi
4:00 am25 °FClear.16 mph74%29.61 "Hg15 mi
3:00 am25 °FClear.17 mph69%29.65 "Hg15 mi
2:00 am25 °FClear.16 mph69%29.70 "Hg15 mi
1:00 am23 °FClear.16 mph74%29.73 "Hg15 mi
12:00 am25 °FClear.16 mph69%29.78 "Hg15 mi
11:00 pm
Mon, Jan 16
25 °FClear.15 mph74%29.82 "Hg15 mi
10:00 pm25 °FPassing clouds.13 mph74%29.85 "Hg15 mi
9:00 pm25 °FPassing clouds.15 mph74%29.89 "Hg15 mi
8:00 pm23 °FPassing clouds.9 mph74%29.95 "Hg15 mi
7:00 pm27 °FHigh level clouds.10 mph69%29.96 "Hg15 mi
6:00 pm27 °FPassing clouds.12 mph69%29.97 "Hg15 mi
5:00 pm28 °FPartly sunny.15 mph69%29.99 "Hg15 mi
4:00 pm28 °FPartly sunny.13 mph69%29.99 "Hg15 mi
3:00 pm30 °FPartly sunny.15 mph64%30.02 "Hg15 mi
Weather by CustomWeather, © 2017

See weather overviewHow to use our weather pages